Flag for U.S.A. Weather past 2 weeks in Jackson, Mississippi, U.S.A.

Now
66 °F

Sunny.


Feels Like: 66 °F
Forecast: 47 / 71 °F
Wind: No wind

Location: Hawkins Field

Current Time: Oct 23, 2014 at 4:25:19 PM

Latest Report: Oct 23, 2014 at 3:53 PM


Visibility: 10 mi

Pressure: 30.08 "Hg

Humidity: 47%

Dew point: 45 °F

Location of JacksonLocation

Historic Weather in Jackson — Graph

°F

Jackson temperature yesterday

Maximum temperature yesterday: 75 °F (at 3:53 PM)
Minimum temperature yesterday: 51 °F (at 6:53 AM)
Average temperature yesterday: 63 °F

Past Weeks' High & Low Weather Summary

 TemperatureHumidityPressure
High89 °F (Oct 10, 1:53 PM)94% (Oct 13, 3:56 PM)30.17 "Hg (Oct 13, 3:56 PM)
Low44 °F (Oct 23, 6:53 AM)26% (Oct 16, 3:53 PM)29.69 "Hg (Oct 13, 1:53 PM)
Average68 °F68%29.98 "Hg
* Reported Oct 8 2:53 PM — Oct 23 2:53 PM, Jackson, Weather by CustomWeather, © 2014

Note: Actual official high and low records may vary slightly from our data, if they occured in-between our weather recording intervals... More about our weather records

Advertising

Jackson weather history for previous 24 hours

 ConditionsComfort  
Time TempWeatherWind HumidityBarometerVisibility
2:53 PM
Oct 23
66 °FSunny.3 mph43%30.08 "Hg10 mi
1:53 PM67 °FSunny.3 mph39%30.10 "Hg10 mi
12:53 PM67 °FSunny.No wind44%30.12 "Hg10 mi
11:53 AM65 °FSunny.6 mph45%30.14 "Hg10 mi
10:53 AM63 °FSunny.7 mph52%30.15 "Hg10 mi
9:53 AM59 °FSunny.7 mph60%30.16 "Hg10 mi
8:53 AM55 °FSunny.6 mph72%30.16 "Hg10 mi
7:53 AM48 °FClear.No wind86%30.14 "Hg10 mi
6:53 AM44 °FClear.No wind93%30.12 "Hg10 mi
5:53 AM46 °FClear.No wind89%30.12 "Hg10 mi
4:53 AM47 °FClear.No wind86%30.10 "Hg10 mi
3:53 AM47 °FClear.3 mph90%30.09 "Hg10 mi
2:53 AM47 °FClear.No wind90%30.10 "Hg10 mi
1:53 AM51 °FClear.No wind83%30.11 "Hg10 mi
12:53 AM56 °FClear.No wind67%30.10 "Hg10 mi
11:53 PM
Oct 22
57 °FClear.3 mph69%30.12 "Hg10 mi
10:53 PM58 °FClear.3 mph67%30.11 "Hg10 mi
9:53 PM59 °FClear.5 mph62%30.11 "Hg10 mi
8:53 PM62 °FClear.5 mph54%30.10 "Hg10 mi
7:53 PM64 °FClear.5 mph54%30.09 "Hg10 mi
6:53 PM66 °FSunny.3 mph50%30.09 "Hg10 mi
5:53 PM71 °FSunny.6 mph42%30.08 "Hg10 mi
4:53 PM74 °FSunny.6 mph36%30.07 "Hg10 mi
Weather by CustomWeather, © 2014

See weather overviewHow to use our weather pages